Location: Be?i?
(36.9044°N, 30.1006°E)
Time: 10:26:21
(UTC+00:00)

USA 238 - Pass Details

Date: 05 August 2024
Orbit: 916 x 1295 km, 63.4° (Epoch: 11 August)

Event Time Altitude Azimuth Distance (km) Brightness Sun altitude
Rises 20:33:53 0° 330° (NNW) 4,011 7.8 -32.2°
Reaches altitude 10° 20:36:33 10° 333° (NNW) 3,099 7.0 -32.5°
Maximum altitude 20:44:02 66° 55° (NE) 1,341 4.1 -33.1°
Enters shadow 20:44:18 66° 67° (ENE) 1,347 4.0 -33.1°
